sat.trackr.live / text

‹ back to catalog

STARLINK-31928

NORAD 59897 · 2024-100N

PAYLOAD ACTIVE UNKNOWN

§ Identity

Operator
Country
US
Launch date
2024-05-28
Launch site
AFETR
Launch vehicle
Mass (kg)
RCS (m²)

Purposes: comms

External: N2YO · Heavens-Above · Gunter

§ Orbital elements

Epoch: 2026-09-21T21:57:28.727712Z

Period
94.27 min
Inclination
43.0045°
Eccentricity
0.0001117
Mean motion
15.27576721 rev/d
Perigee alt
482.3 km
Apogee alt
483.8 km
Semi-major
6,861.2 km
B*
9.9667e-6
RAAN
97.5100°
Arg perigee
264.1076°
Mean anomaly
95.9648°
Rev number
13,106

§ Raw data

STARLINK-319281 59897U 24100N   26264.91491583  .00000012  00000+0  99667-5 0  99992 59897  43.0045  97.5100 0001117 264.1076  95.9648 15.27576721131069

JSON: /api/v1/satellites/59897 · /tle

For live sub-satellite position, see the globe view (requires WebGL).

§ Visibility from observer

Set your observer location to see the next 7 days of passes ≥ 10°. The values pass through the URL so the page stays shareable.

No JS? Fill the form by hand. The geolocation button needs JavaScript.